Regional Weather Roundup
Issued by NWS

Home | Current Version | Previous Version | Graphics & Text | Print | Product List | Glossary On
Versions: 1 2 3 4 5 6 7 8 9 10 11 12 13 14 15 16 17 18 19 20 21 22 23 24 25 26 27 28
000
ASUS45 KTFX 301310
RWRMT
MONTANA REGIONAL WEATHER ROUNDUP
NATIONAL WEATHER SERVICE GREAT FALLS MT
700 AM MDT MON MAY 30 2016

NOTE: "FAIR" INDICATES FEW OR NO CLOUDS BELOW 12000 FEET WITH NO
SIGNIFICANT WEATHER AND/OR OBSTRUCTIONS TO VISIBILITY.

MTZ001>007-043-301400-
WEST OF THE DIVIDE

CITY           SKY/WX    TMP DP  RH WIND       PRES   REMARKS
KALISPELL      SUNNY     44  42  93 W5        30.11R
MISSOULA       MOSUNNY   45  42  89 CALM      30.12R
BUTTE          SUNNY     38  34  85 N5        30.12R
MULLAN PASS    CLEAR     34  30  85 NW8       30.14R WCI  27
ANACONDA         N/A     45  36  70 S3        30.10S
DEER LODGE       N/A     45  41  87 CALM      30.11R
EUREKA           N/A     45  43  93 W3        30.15R
HAMILTON         N/A     52  39  62 E6        30.12R
LIBBY            N/A     36  36 100 CALM      30.17R
$$

MTZ008-052>055-301400-
SOUTHWEST MONTANA

CITY           SKY/WX    TMP DP  RH WIND       PRES   REMARKS
BOZEMAN        CLOUDY    51  46  83 S7        30.07S
DILLON         SUNNY     45  37  73 SW7       30.10R
W YELLOWSTONE  CLOUDY    39  37  93 CALM      30.13S
ENNIS          PTSUNNY   46  43  87 CALM      30.15R
$$

MTZ009-010-012-014-046-048-049-054-301400-
EAST SLOPES AND CENTRAL MONTANA

CITY           SKY/WX    TMP DP  RH WIND       PRES   REMARKS
CUT BANK       PTSUNNY   40  38  93 NW26      30.06R
GREAT FALLS    CLOUDY    46  41  82 NW10      30.05R
MALMSTROM AFB  PTSUNNY   47  42  84 NW7       30.05R
HELENA         PTSUNNY   53  38  56 W9        30.07R
CHOTEAU          N/A     46  39  76 VRB5G12   30.06F
$$

MTZ011-013-016-021-045-047-050-051-301400-
NORTH CENTRAL MONTANA

CITY           SKY/WX    TMP DP  RH WIND       PRES   REMARKS
HAVRE          LGT RAIN  48  44  86 NW10      29.99R
LEWISTOWN      CLOUDY    52  45  77 CALM      30.00R
N BAR RANCH    CLOUDY    46  43  87 CALM      30.02S
CHINOOK          N/A     48  46  93 W8        29.97R
$$

MTZ017>020-022>027-061-062-301400-
NORTHEAST MONTANA

CITY           SKY/WX    TMP DP  RH WIND       PRES   REMARKS
GLASGOW        CLOUDY    59  44  57 SW9       29.92S
JORDAN           N/A     57  48  72 W6        29.95S
SIDNEY         CLOUDY    54  47  77 S6        29.91F
WOLF POINT     CLOUDY    59  46  62 W7        29.90S
POPLAR           N/A     54  46  76 N5        29.90S
$$

MTZ028>42-056>058-301400-
SOUTHCENTRAL AND SOUTHEAST MONTANA

CITY           SKY/WX    TMP DP  RH WIND       PRES   REMARKS
BAKER          LGT RAIN  53  50  89 N24G33    29.92S
BILLINGS       CLOUDY    53  50  89 SW10      30.00S
LIVINGSTON     RAIN      48  42  80 CALM      30.08R
MILES CITY     LGT RAIN  56  50  80 N8        29.94R
FORSYTH          N/A     57  52  82 NW6       29.96R
$$

REGIONAL REPORTS...DAKOTAS

CITY           SKY/WX    TMP DP  RH WIND       PRES   REMARKS
WILLISTON      PTSUNNY   51  45  79 NE3       29.90S
MINOT          SUNNY     59  50  72 CALM      29.89S
DICKINSON      MOSUNNY   57  50  77 CALM      29.90R
BEACH          CLOUDY    55  54  94 SW17G23   30.00R
CROSBY           N/A     55  48  76 S9        29.92R
WATFORD CITY     N/A     50  45  81 SE5       29.91S
BISMARCK       SUNNY     57  53  86 CALM      29.93F
GRAND FORKS    CLOUDY    58  51  78 S6        29.92R
FARGO          SUNNY     64  49  57 S5        29.94S
BUFFALO SD       N/A     55  51  86 NE5       29.81F
RAPID CITY     MOSUNNY   56  52  86 SE3       29.89F
$$

REGIONAL REPORTS...WYOMING/IDAHO/WASHINGTON

CITY           SKY/WX    TMP DP  RH WIND       PRES   REMARKS
GILLETTE       CLOUDY    58  43  57 W18G25    29.91R
SHERIDAN       PTSUNNY   54  46  74 N13G21    29.99R
BUFFALO WY     MOSUNNY   52  43  71 N28G40    29.96R
CODY           CLOUDY    52  43  71 N5        30.04S
YELLOWSTONE LA   N/A     39  36  89 CALM      30.18S
IDAHO FALLS    SUNNY     50  42  74 SW10      30.09R
SALMON         PTCLDY    45  36  70 S3        30.11S
BOISE          PTCLDY    52  38  58 NW8       30.13R
SPOKANE        PTCLDY    43  35  73 W7        30.17R
$$

REGIONAL REPORTS...ALBERTA

CITY           SKY/WX    TMP DP  RH WIND       PRES   REMARKS
EDMONTON       CLOUDY    45  37  76 NW8       30.06R
CALGARY        PTSUNNY   43  37  81 NW17G24   30.06S
LETHBRIDGE     LGT RAIN  43  41  93 W25G37    30.06R
MEDICINE HAT   CLOUDY    50  46  87 W13       29.93R
WATERTON GATE    N/A     39  36  87 NW3         N/A
CARDSTON         N/A     41  39  93 NW3         N/A
MILK RIVER       N/A     41  39  93 NW22G31     N/A
ONEFOUR          N/A     46  43  87 W18G25      N/A
$$

REGIONAL REPORTS...SASKATCHEWAN

CITY           SKY/WX    TMP DP  RH WIND       PRES   REMARKS
SWIFT CURRENT  MOSUNNY   52  45  76 W14G20    29.87S
REGINA         PTSUNNY   52  45  76 E6        29.88S
SASKATOON      CLOUDY    48  48 100 NE13G18   29.95S
CYPRESS HILLS    N/A     48  36  61 NW5         N/A
VAL MARIE        N/A     48  45  87 S12         N/A
ROCKGLEN         N/A     52  45  76 S2          N/A
$$




USA.gov is the U.S. government's official web portal to all federal, state and local government web resources and services.